Franklin, NC

2:36 PM EDT on September 26, 2017 (GMT -0400)
Franklin

Weather History for K1A5 - July, 2014

Change the Weather History Date:

Thursday, July 10, 2014

  Actual Average (KTOC) Record (KTOC)
Temperature  
Mean Temperature 72 °F -  
Max Temperature 81 °F 90 °F 95 °F (2015)
Min Temperature 62 °F 68 °F 69 °F (2017)
Cooling Degree Days 6    
Growing Degree Days 22 (Base 50)    
Moisture  
Dew Point 64 °F    
Average Humidity 85    
Maximum Humidity 100    
Minimum Humidity 48    
Precipitation  
Precipitation 0.01 in - - ()
Sea Level Pressure  
Sea Level Pressure 30.15 in    
Wind  
Wind Speed 0 mph (NW)    
Max Wind Speed 6 mph    
Max Gust Speed -    
Visibility 10 miles    
Events Rain    
Averages and records for this station are not official NWS values.
T = Trace of Precipitation, MM = Missing Value Source: NWS Daily Summary

Daily Weather History Graph

Daily Weather History Graph

Search for Another Location

Airport or City:

Trip Planner

Search our weather history database for the weather conditions in past years. The results will help you decide how hot, cold, wet, or windy it might be!

Date:

Astronomy

Jul. 10, 2014 Rise Set
Actual Time 6:27 AM EDT 8:50 PM EDT
Civil Twilight 5:58 AM EDT 9:19 PM EDT
Nautical Twilight 5:21 AM EDT 9:55 PM EDT
Astronomical Twilight 4:42 AM EDT 10:35 PM EDT
Moon 7:04 PM EDT (7/10) 4:35 AM EDT (7/10)
Length of Visible Light 15h 21m
Length of Day
14h 23m
Waxing Gibbous, 95% of the Moon is Illuminated
Jul 10
Waxing Gibbous
Jul 12
Full
Jul 18
Last Quarter
Jul 26
New
Aug 3
First Quarter

Hourly Weather History & Observations

Time (EDT) Temp. Heat Index Dew Point Humidity Pressure Visibility Wind Dir Wind Speed Gust Speed Precip Events Conditions
12:15 AM 64.2 °F - 64.2 °F 100% 30.15 in 10.0 mi Calm Calm - N/A   Overcast
12:35 AM 64.0 °F - 64.0 °F 100% 30.15 in 10.0 mi Calm Calm - N/A Rain Light Rain
12:55 AM 63.7 °F - 63.7 °F 100% 30.15 in 10.0 mi Calm Calm - N/A   Mostly Cloudy
1:15 AM 63.7 °F - 63.7 °F 100% 30.15 in 10.0 mi Calm Calm - N/A   Overcast
1:35 AM 63.5 °F - 63.5 °F 100% 30.14 in 10.0 mi Calm Calm - N/A Rain Rain
1:55 AM 63.5 °F - 63.5 °F 100% 30.14 in 10.0 mi Calm Calm - N/A   Light Drizzle
2:15 AM 63.5 °F - 63.5 °F 100% 30.13 in 10.0 mi Calm Calm - N/A   Overcast
2:35 AM 63.5 °F - 63.5 °F 100% 30.14 in 10.0 mi Calm Calm - N/A   Overcast
2:55 AM 63.5 °F - 63.5 °F 100% 30.13 in 10.0 mi Calm Calm - N/A   Overcast
3:15 AM 63.1 °F - 63.1 °F 100% 30.13 in 10.0 mi Calm Calm - N/A   Overcast
3:35 AM 63.0 °F - 63.0 °F 100% 30.13 in 10.0 mi Calm Calm - N/A   Overcast
3:55 AM 63.0 °F - 63.0 °F 100% 30.12 in 10.0 mi Calm Calm - N/A   Overcast
4:15 AM 63.0 °F - 63.0 °F 100% 30.12 in 10.0 mi Calm Calm - N/A   Overcast
4:35 AM 63.0 °F - 63.0 °F 100% 30.11 in 10.0 mi Calm Calm - N/A   Overcast
4:55 AM 62.8 °F - 62.8 °F 100% 30.12 in 10.0 mi Calm Calm - N/A   Mostly Cloudy
5:15 AM 62.8 °F - 62.8 °F 100% 30.13 in 10.0 mi Calm Calm - N/A   Overcast
5:35 AM 62.8 °F - 62.8 °F 100% 30.13 in 10.0 mi Calm Calm - N/A   Overcast
5:55 AM 62.6 °F - 62.6 °F 100% 30.13 in 10.0 mi Calm Calm - N/A   Overcast
6:15 AM 62.6 °F - 62.6 °F 100% 30.14 in 10.0 mi Calm Calm - N/A   Overcast
6:35 AM 62.8 °F - 62.8 °F 100% 30.14 in 10.0 mi Calm Calm - N/A   Overcast
6:55 AM 63.0 °F - 63.0 °F 100% 30.15 in 10.0 mi Calm Calm - N/A   Overcast
7:15 AM 63.0 °F - 63.0 °F 100% 30.16 in 10.0 mi Calm Calm - N/A   Overcast
7:35 AM 63.3 °F - 63.3 °F 100% 30.16 in 10.0 mi Calm Calm - N/A   Overcast
8:15 AM 63.9 °F - 63.9 °F 100% 30.17 in 10.0 mi Calm Calm - N/A   Overcast
8:35 AM 64.6 °F - 64.2 °F 99% 30.16 in 10.0 mi Calm Calm - N/A   Overcast
8:55 AM 64.6 °F - 64.6 °F 100% 30.17 in 10.0 mi Calm Calm - N/A   Overcast
9:15 AM 65.5 °F - 63.5 °F 93% 30.17 in 10.0 mi Calm Calm - N/A   Overcast
9:35 AM 65.8 °F - 63.3 °F 92% 30.18 in 10.0 mi Calm Calm - N/A   Overcast
9:55 AM 66.2 °F - 64.0 °F 93% 30.17 in 10.0 mi Calm Calm - N/A   Overcast
10:20 AM 66.9 °F - 63.5 °F 89% 30.18 in 10.0 mi Calm Calm - N/A   Overcast
10:35 AM 67.5 °F - 63.3 °F 87% 30.18 in 10.0 mi Calm Calm - N/A   Overcast
10:55 AM 68.0 °F - 62.4 °F 82% 30.18 in 10.0 mi Calm Calm - N/A   Overcast
11:15 AM 69.6 °F - 63.7 °F 81% 30.19 in 10.0 mi Calm Calm - N/A   Mostly Cloudy
11:35 AM 70.2 °F - 63.0 °F 78% 30.18 in 10.0 mi Calm Calm - N/A   Overcast
11:55 AM 70.9 °F - 63.7 °F 78% 30.18 in 10.0 mi Calm Calm - 0.01 in   Overcast
12:15 PM 72.1 °F - 64.0 °F 76% 30.18 in 10.0 mi Calm Calm - N/A   Overcast
12:35 PM 72.7 °F - 64.2 °F 75% 30.18 in 10.0 mi Calm Calm - N/A   Mostly Cloudy
12:55 PM 73.4 °F - 64.0 °F 72% 30.17 in 10.0 mi Calm Calm - N/A   Mostly Cloudy
1:15 PM 72.9 °F - 65.8 °F 79% 30.17 in 10.0 mi Calm Calm - N/A Rain Light Rain
1:35 PM 75.6 °F - 64.6 °F 69% 30.16 in 10.0 mi Calm Calm - N/A Rain Light Rain
1:55 PM 75.9 °F - 64.9 °F 69% 30.16 in 10.0 mi WNW 3.5 mph - N/A Rain Light Rain
2:15 PM 76.3 °F - 64.8 °F 67% 30.15 in 10.0 mi Calm Calm - N/A   Mostly Cloudy
2:35 PM 77.2 °F - 63.1 °F 62% 30.14 in 10.0 mi Calm Calm - N/A   Clear
2:55 PM 79.2 °F - 64.9 °F 62% 30.13 in 10.0 mi Calm Calm - N/A   Clear
3:35 PM 80.6 °F 81.6 °F 61.5 °F 52% 30.12 in 10.0 mi Calm Calm - N/A   Scattered Clouds
3:55 PM 81.3 °F 82.6 °F 63.0 °F 54% 30.13 in 10.0 mi NNW 5.8 mph - N/A   Scattered Clouds
4:35 PM 81.0 °F 81.8 °F 61.3 °F 51% 30.12 in 10.0 mi Calm Calm - N/A   Scattered Clouds
4:55 PM 81.1 °F 82.4 °F 63.1 °F 54% 30.11 in 10.0 mi WNW 3.5 mph - N/A   Scattered Clouds
5:15 PM 80.6 °F 81.8 °F 62.8 °F 54% 30.11 in 10.0 mi NNW 4.6 mph - N/A   Scattered Clouds
5:35 PM 81.5 °F 82.0 °F 60.3 °F 48% 30.11 in 10.0 mi WNW 3.5 mph - N/A   Scattered Clouds
5:55 PM 81.7 °F 82.6 °F 61.7 °F 51% 30.11 in 10.0 mi Calm Calm - N/A   Clear
6:15 PM 81.5 °F 82.5 °F 62.2 °F 52% 30.11 in 10.0 mi NNW 3.5 mph - N/A   Clear
6:35 PM 81.0 °F 81.7 °F 61.0 °F 50% 30.10 in 10.0 mi NW 4.6 mph - N/A   Clear
6:55 PM 80.6 °F 81.6 °F 61.7 °F 52% 30.10 in 10.0 mi NW 3.5 mph - N/A   Clear
7:15 PM 80.1 °F 81.2 °F 62.1 °F 54% 30.11 in 10.0 mi NW 3.5 mph - N/A   Clear
7:35 PM 79.7 °F - 62.1 °F 55% 30.11 in 10.0 mi NW 3.5 mph - N/A   Clear
7:55 PM 78.3 °F - 62.8 °F 59% 30.11 in 10.0 mi NW 3.5 mph - N/A   Clear
8:15 PM 74.7 °F - 66.2 °F 75% 30.12 in 10.0 mi Calm Calm - N/A   Clear
8:35 PM 71.6 °F - 66.0 °F 82% 30.13 in 10.0 mi Calm Calm - N/A   Clear
8:55 PM 69.3 °F - 65.5 °F 88% 30.14 in 10.0 mi SW 4.6 mph - N/A   Clear
9:15 PM 68.5 °F - 67.8 °F 98% 30.16 in 10.0 mi Calm Calm - N/A   Clear
9:35 PM 68.0 °F - 68.0 °F 100% 30.17 in 10.0 mi Calm Calm - N/A   Clear
9:55 PM 66.2 °F - 66.2 °F 100% 30.18 in 10.0 mi Calm Calm - N/A   Clear
10:15 PM 66.6 °F - 66.6 °F 100% 30.18 in 10.0 mi Calm Calm - N/A   Clear
10:35 PM 66.2 °F - 66.2 °F 100% 30.20 in 10.0 mi Calm Calm - N/A   Clear
10:55 PM 66.2 °F - 66.2 °F 100% 30.20 in 10.0 mi Calm Calm - N/A   Scattered Clouds
11:20 PM 65.3 °F - 65.3 °F 100% 30.20 in 10.0 mi Calm Calm - N/A   Scattered Clouds
11:35 PM 63.9 °F - 63.9 °F 100% 30.21 in 5.0 mi Calm Calm - N/A   Clear
11:55 PM 64.0 °F - 64.0 °F 100% 30.21 in 7.0 mi Calm Calm - N/A   Clear